Meteo pe oră la Abdrahmanovo

Astăzi, 29 Iulie, Joi

Timp Temperatura Precipitaţii Vânt Presiune Umiditate
00:00 +12°C° 0 mm 1 m/s 741 mmHg 59%
01:00 +12°C° 0 mm 1 m/s 740 mmHg 60%
02:00 +12°C° 0 mm 1 m/s 740 mmHg 62%
03:00 +11°C° 0 mm 1 m/s 741 mmHg 63%
04:00 +11°C° 0 mm 1 m/s 741 mmHg 65%
05:00 +13°C° 0 mm 2 m/s 741 mmHg 59%
06:00 +14°C° 0 mm 2 m/s 741 mmHg 54%
07:00 +16°C° 0 mm 2 m/s 741 mmHg 48%
08:00 +18°C° 0 mm 3 m/s 741 mmHg 43%
09:00 +20°C° 0 mm 3 m/s 741 mmHg 38%
10:00 +22°C° 0 mm 3 m/s 741 mmHg 33%
11:00 +24°C° 0 mm 3 m/s 740 mmHg 30%
12:00 +25°C° 0 mm 3 m/s 740 mmHg 28%
13:00 +27°C° 0 mm 3 m/s 740 mmHg 25%
14:00 +27°C° 0 mm 4 m/s 740 mmHg 24%
15:00 +27°C° 0 mm 4 m/s 739 mmHg 22%
16:00 +28°C° 0 mm 4 m/s 739 mmHg 21%
17:00 +27°C° 0 mm 3 m/s 739 mmHg 25%
18:00 +26°C° 0 mm 2 m/s 738 mmHg 28%
19:00 +25°C° 0 mm 1 m/s 738 mmHg 31%
20:00 +23°C° 0 mm 2 m/s 738 mmHg 33%
21:00 +21°C° 0 mm 3 m/s 738 mmHg 35%
22:00 +19°C° 0 mm 3 m/s 738 mmHg 37%
23:00 +19°C° 0 mm 3 m/s 738 mmHg 37%

Mâine, 30 Iulie, Vineri

Timp Temperatura Precipitaţii Vânt Presiune Umiditate
00:00 +20°C° 0 mm 3 m/s 737 mmHg 36%
01:00 +20°C° 0 mm 2 m/s 737 mmHg 36%
02:00 +20°C° 0 mm 2 m/s 737 mmHg 36%
03:00 +20°C° 0 mm 3 m/s 737 mmHg 36%
04:00 +19°C° 0 mm 3 m/s 737 mmHg 36%
05:00 +20°C° 0 mm 3 m/s 736 mmHg 39%
06:00 +21°C° 0 mm 4 m/s 736 mmHg 41%
07:00 +21°C° 0 mm 5 m/s 736 mmHg 44%
08:00 +21°C° 0.2 mm 5 m/s 736 mmHg 55%
09:00 +20°C° 0.2 mm 5 m/s 736 mmHg 67%
10:00 +19°C° 0.2 mm 5 m/s 735 mmHg 79%
11:00 +22°C° 0.2 mm 6 m/s 735 mmHg 68%
12:00 +26°C° 0.2 mm 6 m/s 735 mmHg 58%
13:00 +29°C° 0.2 mm 7 m/s 735 mmHg 47%
14:00 +28°C° 0 mm 7 m/s 735 mmHg 47%
15:00 +28°C° 0 mm 6 m/s 735 mmHg 48%
16:00 +28°C° 0 mm 6 m/s 735 mmHg 48%
17:00 +27°C° 0 mm 5 m/s 735 mmHg 49%
18:00 +27°C° 0 mm 5 m/s 735 mmHg 49%
19:00 +27°C° 0 mm 5 m/s 736 mmHg 50%
20:00 +25°C° 0 mm 3 m/s 736 mmHg 56%
21:00 +24°C° 0 mm 2 m/s 736 mmHg 61%
22:00 +20°C° 0 mm 0 m/s 736 mmHg 67%
23:00 +22°C° 0 mm 1 m/s 736 mmHg 67%

Poimâine, 31 Iulie, Sâmbătă

Timp Temperatura Precipitaţii Vânt Presiune Umiditate
00:00 +22°C° 0 mm 1 m/s 736 mmHg 66%
01:00 +21°C° 0 mm 2 m/s 737 mmHg 66%
02:00 +20°C° 0 mm 2 m/s 737 mmHg 69%
03:00 +20°C° 0 mm 2 m/s 737 mmHg 72%
04:00 +19°C° 0 mm 2 m/s 736 mmHg 75%
05:00 +20°C° 0 mm 2 m/s 737 mmHg 69%
06:00 +23°C° 0 mm 2 m/s 737 mmHg 63%
07:00 +24°C° 0 mm 3 m/s 737 mmHg 57%
08:00 +26°C° 0 mm 3 m/s 737 mmHg 51%
09:00 +28°C° 0 mm 3 m/s 737 mmHg 45%
10:00 +30°C° 0 mm 4 m/s 737 mmHg 39%
11:00 +32°C° 0 mm 4 m/s 737 mmHg 38%
12:00 +32°C° 0 mm 4 m/s 736 mmHg 38%
13:00 +33°C° 0 mm 5 m/s 736 mmHg 37%
14:00 +33°C° 0 mm 5 m/s 736 mmHg 36%
15:00 +33°C° 0 mm 5 m/s 736 mmHg 36%
16:00 +34°C° 0 mm 6 m/s 735 mmHg 36%
17:00 +29°C° 0.6 mm 6 m/s 736 mmHg 49%
18:00 +26°C° 0.6 mm 6 m/s 736 mmHg 63%
19:00 +22°C° 0.6 mm 5 m/s 736 mmHg 76%
20:00 +21°C° 0.3 mm 5 m/s 736 mmHg 78%
21:00 +21°C° 0.3 mm 5 m/s 736 mmHg 80%
22:00 +20°C° 0.3 mm 5 m/s 736 mmHg 81%
23:00 +20°C° 0.2 mm 4 m/s 737 mmHg 84%

1 August, Duminică

Timp Temperatura Precipitaţii Vânt Presiune Umiditate
00:00 +20°C° 0.2 mm 3 m/s 737 mmHg 87%
01:00 +20°C° 0.2 mm 2 m/s 737 mmHg 90%
02:00 +19°C° 0 mm 2 m/s 737 mmHg 89%
03:00 +19°C° 0 mm 2 m/s 737 mmHg 89%
04:00 +19°C° 0 mm 2 m/s 737 mmHg 89%
05:00 +20°C° 0.3 mm 2 m/s 737 mmHg 87%
06:00 +20°C° 0.3 mm 2 m/s 738 mmHg 85%
07:00 +21°C° 0.3 mm 2 m/s 738 mmHg 83%
08:00 +24°C° 0 mm 3 m/s 738 mmHg 71%
09:00 +26°C° 0 mm 3 m/s 738 mmHg 59%
10:00 +28°C° 0 mm 4 m/s 739 mmHg 47%
11:00 +29°C° 0 mm 5 m/s 739 mmHg 40%
12:00 +30°C° 0 mm 5 m/s 739 mmHg 34%
13:00 +32°C° 0 mm 6 m/s 739 mmHg 28%
14:00 +33°C° 0 mm 6 m/s 739 mmHg 27%
15:00 +33°C° 0 mm 6 m/s 738 mmHg 26%
16:00 +33°C° 0 mm 6 m/s 738 mmHg 25%
17:00 +32°C° 0 mm 5 m/s 739 mmHg 28%
18:00 +30°C° 0 mm 5 m/s 739 mmHg 32%
19:00 +28°C° 0 mm 5 m/s 739 mmHg 35%
20:00 +26°C° 0 mm 3 m/s 739 mmHg 38%
21:00 +24°C° 0 mm 2 m/s 740 mmHg 42%
22:00 +22°C° 0 mm 1 m/s 740 mmHg 46%
23:00 +22°C° 0 mm 1 m/s 740 mmHg 49%

2 August, Luni

Timp Temperatura Precipitaţii Vânt Presiune Umiditate
00:00 +21°C° 0 mm 1 m/s 740 mmHg 52%
01:00 +20°C° 0 mm 1 m/s 740 mmHg 54%
02:00 +20°C° 0 mm 1 m/s 740 mmHg 55%
03:00 +20°C° 0 mm 1 m/s 740 mmHg 55%
04:00 +18°C° 0 mm 2 m/s 740 mmHg 56%
05:00 +20°C° 0 mm 2 m/s 741 mmHg 53%
06:00 +21°C° 0 mm 2 m/s 741 mmHg 50%
07:00 +23°C° 0 mm 2 m/s 741 mmHg 47%
08:00 +25°C° 0 mm 2 m/s 741 mmHg 43%
09:00 +27°C° 0 mm 2 m/s 741 mmHg 39%
10:00 +29°C° 0 mm 3 m/s 741 mmHg 35%
11:00 +30°C° 0 mm 3 m/s 741 mmHg 32%
12:00 +33°C° 0 mm 3 m/s 741 mmHg 30%
13:00 +34°C° 0 mm 3 m/s 741 mmHg 27%
14:00 +34°C° 0 mm 3 m/s 741 mmHg 26%
15:00 +34°C° 0 mm 3 m/s 740 mmHg 25%
16:00 +35°C° 0 mm 2 m/s 740 mmHg 25%
17:00 +34°C° 0 mm 2 m/s 740 mmHg 28%
18:00 +32°C° 0 mm 2 m/s 740 mmHg 31%
19:00 +30°C° 0 mm 1 m/s 740 mmHg 34%
20:00 +29°C° 0 mm 1 m/s 740 mmHg 38%
21:00 +27°C° 0 mm 1 m/s 740 mmHg 42%
22:00 +25°C° 0 mm 1 m/s 740 mmHg 47%
23:00 +24°C° 0 mm 1 m/s 740 mmHg 48%

3 August, Marţi

Timp Temperatura Precipitaţii Vânt Presiune Umiditate
00:00 +23°C° 0 mm 1 m/s 740 mmHg 49%
01:00 +23°C° 0 mm 2 m/s 740 mmHg 51%
02:00 +21°C° 0 mm 2 m/s 740 mmHg 52%
03:00 +21°C° 0 mm 2 m/s 740 mmHg 52%
04:00 +20°C° 0 mm 2 m/s 740 mmHg 53%
05:00 +22°C° 0 mm 3 m/s 740 mmHg 49%
06:00 +24°C° 0 mm 3 m/s 741 mmHg 46%
07:00 +26°C° 0 mm 3 m/s 741 mmHg 42%
08:00 +28°C° 0 mm 3 m/s 741 mmHg 37%
09:00 +31°C° 0 mm 3 m/s 741 mmHg 31%
10:00 +34°C° 0 mm 3 m/s 741 mmHg 26%
11:00 +36°C° 0 mm 3 m/s 741 mmHg 24%
12:00 +37°C° 0 mm 3 m/s 741 mmHg 22%
13:00 +38°C° 0 mm 3 m/s 740 mmHg 20%
14:00 +36°C° 0.1 mm 3 m/s 740 mmHg 26%
15:00 +34°C° 0.1 mm 4 m/s 740 mmHg 31%
16:00 +32°C° 0.1 mm 4 m/s 740 mmHg 37%
17:00 +32°C° 0 mm 4 m/s 740 mmHg 37%
18:00 +30°C° 0 mm 3 m/s 739 mmHg 37%
19:00 +30°C° 0 mm 3 m/s 739 mmHg 36%
20:00 +28°C° 0 mm 3 m/s 740 mmHg 39%
21:00 +27°C° 0 mm 3 m/s 740 mmHg 42%
22:00 +26°C° 0 mm 3 m/s 740 mmHg 45%
23:00 +26°C° 0 mm 3 m/s 740 mmHg 46%
Arată mai mult

Formular de consimțământ

Meteoprog și furnizorii noștri de servicii pot stoca și accesa date personale, precum cookies, identificatori de dispozitiv sau alte tehnologii similare pe dispozitivul dumneavoastră și procesa astfel de date pentru a personaliza conținutul și reclamele, dar și pentru a oferi caracteristici de social media și pentru a analiza traficul.

  • Stocarea și/sau accesarea informațiilor pe dispozitivul dumneavoastră

    Cookies, identificatori de dispozitiv sau alte informații pot fi stocate sau accesate pe dispozitiv în scopurile indicate mai sus.

  • Reclame și conținut personalizat, evaluarea reclamelor și a conținutului, informații despre audiențe și dezvoltarea produselor

    Reclamele și conținutul pot fi personalizate pe baza unui profil. Pot fi adăugate date suplimentare pentru a personaliza mai bine reclamele și conținutul. Performanța reclamelor și conținutului poate fi măsurată. Pot fi obținute informații despre utilizatorii care au văzut reclamele și conținutul. Aceste date pot fi utilizate pentru a dezvolta sau îmbunătăți experiența utilizatorilor, sistemele și software-ul.

Dând clic pe ‘Sunt de acord’, permiteți utilizarea cookie-urilor menționate, a identificatorilor de dispozitiv, balizelor web sau altor tehnologii similare. Setările pot fi modificate din browser-ul dispozitivului dumneavoastră.

În anumite scopuri, interesele legitime pot prima asupra consimțământului. Puteți citi mai multe informații în acest sens în Politica privind Confidențialitatea Datelor și Cookie.